Location: New Plymouth
(39.0670°S, 174.0830°E)
Time: 16:30:39
(UTC+12:00)

Cosmos 2278 Rocket - Pass Details

Date: 24 January 2019
Orbit: 841 x 846 km, 71.0° (Epoch: 19 April)

Event Time Altitude Azimuth Distance (km) Brightness Sun altitude
Rises 23:29:26 0° 192° (SSW) 3,434 6.5 -24.7°
Reaches altitude 10° 23:32:24 10° 178° (S) 2,491 5.4 -25.0°
Maximum altitude 23:36:58 24° 125° (SE) 1,699 3.8 -25.4°
Enters shadow 23:38:05 23° 107° (ESE) 1,754 3.7 -25.5°
